Temperature
23 22 22 21 21 21 20 20 20 20 20 19 19 19 19 19 19 18 18 18 18 18 18 18 18 18 18 18 18 18 18 18 17 17 17 17 17 17 17 17 17 17 17
23 22 22 22 21 21 21 21 20 20 20 20 19 19 19 19 19 18 18 18 18 18 18 18 18 18 18 18 18 18 18 18 17 17 17 17 17 17 17 17 16 16 16
23 22 22 22 22 21 21 21 21 20 20 20 19 19 19 19 19 19 18 18 18 18 18 18 18 18 18 18 18 18 18 18 17 17 17 17 17 16 16 16 16 16 16
23 23 23 22 22 22 22 21 21 20 20 20 19 19 19 19 19 19 18 18 18 18 18 18 18 18 18 18 18 18 17 17 17 17 17 17 17 16 16 16 16 16 16
24 24 23 23 23 22 22 22 21 21 20 20 20 19 19 19 19 18 18 18 18 18 18 18 18 18 18 18 18 17 17 17 17 17 17 17 17 17 16 15 15 16 15
24 24 24 23 23 23 22 22 21 21 21 20 20 19 19 19 18 18 18 18 18 18 18 18 18 18 18 18 18 18 17 17 17 17 17 17 17 17 16 16 15 15 15
24 24 24 23 23 23 22 22 22 21 21 20 20 20 19 19 19 18 18 18 18 18 18 18 18 18 18 18 17 17 17 17 17 17 17 17 17 17 16 16 15 15 15
25 24 24 24 23 23 23 22 22 22 21 20 20 20 19 19 19 18 18 18 18 18 18 18 18 18 17 17 17 17 17 17 17 17 17 17 16 16 16 16 16 15 14
25 25 24 24 24 24 23 23 23 22 21 21 20 20 20 19 19 19 18 18 18 18 18 18 18 17 17 17 17 17 17 17 17 17 16 16 16 16 16 16 16 15 14
25 25 25 24 24 24 24 23 23 22 22 21 21 20 20 19 19 19 18 18 18 18 18 18 17 17 17 17 17 17 17 17 17 16 16 16 16 16 16 15 15 15 15
26 25 25 25 24 24 23 23 23 22 22 21 21 20 20 19 19 19 18 18 18 18 18 18 17 17 17 17 17 17 17 17 16 16 16 16 16 16 15 15 15 15 15
26 26 25 25 24 24 23 23 23 22 22 21 21 20 20 19 19 19 19 18 18 18 18 17 17 17 17 17 16 16 16 16 16 16 16 15 15 15 15 15 15 15 15
25 25 25 24 24 24 23 23 22 22 22 21 20 20 20 19 19 19 19 18 18 18 17 17 17 17 17 16 16 16 16 16 16 16 15 15 15 15 15 15 15 14 14
25 25 25 24 24 24 23 23 22 22 21 21 20 20 20 19 19 19 19 18 18 18 17 17 17 17 16 16 16 16 16 15 15 15 15 15 15 15 15 14 14 14 14
25 25 24 24 24 23 23 23 22 22 21 21 20 20 20 19 19 19 18 18 18 17 17 17 17 17 16 16 16 16 15 15 15 15 15 15 15 14 14 14 14 14 14
25 25 24 24 24 24 23 23 22 22 21 21 20 20 19 19 19 19 18 18 18 17 17 17 17 16 16 16 16 15 15 15 15 15 15 14 14 14 14 14 14 14 14
25 25 25 24 24 24 23 23 22 22 21 21 20 20 19 19 19 18 18 18 17 17 17 17 17 16 16 16 15 15 15 15 15 14 14 14 14 14 14 14 14 13 13
25 25 25 25 24 24 23 23 22 22 21 21 20 20 19 19 19 18 18 18 17 17 17 17 17 16 16 16 15 15 15 15 15 14 14 14 14 14 14 14 14 13 13
26 25 25 25 24 24 23 23 22 22 21 21 20 20 20 19 19 18 18 18 17 17 17 17 17 16 16 16 15 15 15 15 14 14 14 14 14 14 13 13 13 13 13
25 25 24 24 24 23 23 22 22 22 21 21 20 20 20 19 19 18 18 18 17 17 17 17 17 16 16 16 15 15 15 15 14 14 14 14 14 14 13 13 13 13 13
25 24 24 23 23 23 23 22 22 22 21 21 20 20 19 19 19 18 18 17 17 17 17 16 16 16 16 16 15 15 15 15 14 14 14 14 13 13 13 13 13 12 12
24 24 23 23 23 22 22 22 22 22 21 20 20 20 19 19 18 18 17 17 17 17 17 16 16 16 16 16 15 15 15 14 14 14 14 13 13 13 13 13 12 12 12
23 23 23 22 22 22 22 22 21 21 20 20 20 19 19 18 18 18 17 17 17 16 16 16 16 16 16 16 15 15 15 14 14 14 14 13 13 13 13 12 12 12 12
23 22 22 22 21 21 21 21 21 20 20 20 19 19 18 18 18 17 17 17 17 16 16 16 16 16 16 16 15 15 15 14 14 13 13 13 13 13 12 12 12 12 12
22 22 22 21 21 21 20 20 20 20 19 19 19 18 18 18 17 17 17 17 17 16 16 16 16 16 16 16 15 15 15 14 14 13 13 13 13 12 12 12 12 11 11
21 21 21 21 20 20 20 20 19 19 19 19 18 18 18 17 17 17 17 16 16 16 16 16 16 16 15 15 15 15 14 14 14 13 13 13 13 12 12 12 12 11 11
Wind_Speed
11 11 11 11 10 8 8 7 6 5 4 3 2 2 1 1 1 1 3 3 3 3 3 1 1 1 1 2 2 2 1 0 2 2 2 3 2 1 0 1 2 2 4
10 11 11 11 11 10 9 8 7 6 5 4 3 3 2 1 1 1 1 2 3 4 3 2 1 1 1 1 1 2 1 1 1 2 1 1 3 3 1 1 1 1 2
16 14 13 12 11 11 10 10 8 7 6 5 3 2 1 1 1 1 0 1 2 3 3 3 2 2 2 2 2 2 3 2 2 2 3 2 2 1 2 2 1 1 1
14 14 14 13 13 12 11 9 9 7 6 5 4 4 3 2 2 2 1 1 1 2 3 3 3 2 2 2 2 2 2 2 2 2 2 2 3 2 0 2 2 2 1
17 16 16 15 13 12 11 10 9 7 6 5 5 5 3 3 2 1 1 1 1 1 1 2 2 2 1 2 1 1 1 2 2 2 1 1 1 2 2 1 1 1 1
17 16 14 12 11 11 10 10 9 8 7 6 6 5 5 4 2 1 1 1 1 1 1 1 1 1 1 1 1 2 2 2 2 1 1 1 2 2 3 3 2 1 1
16 15 14 13 12 12 12 11 10 9 8 7 6 5 5 5 4 3 3 2 1 1 1 0 1 0 0 1 1 1 1 1 1 1 1 1 1 2 2 3 2 1 0
14 15 15 14 14 14 13 11 11 9 8 7 6 5 5 4 3 3 3 2 2 2 1 1 1 1 1 1 1 1 1 0 0 0 0 0 0 1 2 3 3 1 0
15 15 15 14 13 12 12 12 12 9 9 8 7 5 5 4 4 3 3 2 2 1 1 2 2 1 1 1 1 1 0 0 0 0 0 1 0 1 1 2 3 4 2
13 14 13 13 12 12 11 11 11 10 9 9 8 7 5 5 4 4 3 2 2 1 2 2 2 1 2 2 2 1 1 2 1 0 1 1 0 0 1 1 1 2 3
12 12 12 12 11 10 10 10 10 9 9 9 7 6 5 5 5 4 4 3 2 3 3 3 2 2 2 2 2 1 2 2 1 1 1 1 1 1 1 1 1 2 2
10 10 10 10 10 11 11 10 10 10 10 9 8 7 6 6 5 5 4 4 3 3 3 3 3 2 2 2 2 1 1 2 1 1 1 0 1 1 1 1 1 2 2
10 8 8 9 11 11 10 10 10 10 9 9 8 7 7 7 6 6 5 4 4 3 3 3 3 2 2 2 1 1 1 1 1 1 1 0 1 1 0 1 2 2 2
11 10 9 10 10 10 10 10 9 9 10 9 9 8 8 8 7 6 5 5 5 4 4 3 3 3 2 1 1 1 2 1 1 1 1 1 1 1 1 2 2 3 3
11 12 11 10 10 9 9 9 9 9 10 10 10 9 8 7 7 6 6 5 5 5 4 4 3 2 2 1 2 2 2 2 1 1 1 1 2 2 2 2 3 4 4
12 12 11 11 10 10 10 9 9 9 10 10 10 9 8 7 7 7 6 5 5 4 4 4 3 2 2 2 3 3 2 2 2 1 0 1 3 3 4 5 5 5 6
11 12 12 12 11 11 10 10 9 9 9 9 9 8 8 8 8 8 7 6 6 5 4 4 4 3 2 3 3 3 2 2 2 2 2 1 2 3 3 4 4 3 4
12 11 11 10 9 9 9 9 9 9 9 9 8 8 8 8 7 7 7 6 5 5 5 4 4 4 3 4 5 4 3 2 2 2 3 3 2 2 4 4 4 3 1
11 10 11 10 10 10 10 9 9 9 9 9 8 8 9 9 8 8 8 6 6 5 5 4 5 5 4 4 5 5 3 2 2 2 3 4 3 3 5 5 4 2 1
7 8 8 8 9 9 10 9 9 9 10 9 9 8 8 9 9 9 7 6 6 6 5 5 5 5 5 6 7 6 4 3 2 1 1 3 4 5 6 5 4 3 1
8 9 9 9 9 9 10 9 8 9 9 8 7 7 8 8 8 7 6 6 6 6 5 5 5 5 6 6 7 8 5 5 4 3 2 2 4 5 6 5 4 5 3
8 9 9 7 7 9 10 9 8 8 7 7 7 7 7 7 7 6 6 6 7 6 6 5 5 4 4 5 7 9 8 6 5 4 3 4 5 5 5 4 4 4 4
9 8 9 7 5 7 9 9 7 6 7 7 7 7 7 6 6 7 7 6 6 6 6 5 5 5 4 4 7 9 9 9 5 4 6 6 6 4 3 4 4 4 3
7 7 8 8 6 6 7 7 6 7 8 7 7 6 6 6 5 5 6 6 6 6 6 6 6 5 4 4 4 4 5 6 5 3 3 4 4 3 2 2 2 2 3
5 7 8 8 7 6 5 6 6 7 7 7 6 6 6 6 6 5 6 7 7 7 8 7 6 6 7 8 9 8 6 6 5 4 2 2 2 2 1 1 1 1 1
5 5 6 6 6 6 5 4 5 7 8 7 7 6 6 6 6 5 4 5 6 8 10 10 9 7 9 10 11 11 10 10 9 6 3 4 4 5 4 4 3 2 3
Wind_Direction
182 174 172 168 165 163 160 164 160 170 158 149 148 150 174 205 215 196 189 191 190 172 154 147 164 154 152 170 153 142 111 107 124 97 43 13 7 360 225 155 155 165 172
176 178 175 172 172 172 168 167 170 171 171 173 175 171 172 198 202 187 182 197 189 180 167 164 180 173 154 144 149 143 140 202 159 142 126 14 358 2 1 81 144 156 151
181 181 180 180 175 176 176 177 179 175 176 170 148 132 88 32 22 18 272 249 197 188 180 172 181 185 173 185 200 185 175 209 237 177 154 165 212 300 352 15 63 103 112
184 183 183 181 182 183 179 175 177 177 178 170 160 158 166 185 215 209 202 229 212 199 194 194 188 194 190 194 210 193 193 182 227 250 211 187 172 170 280 342 6 48 92
186 187 187 186 184 181 177 177 175 180 180 174 172 169 177 191 199 182 170 212 283 257 228 194 178 193 202 202 208 209 199 189 203 220 225 189 163 163 179 235 316 19 13
189 189 188 180 180 179 178 177 176 183 184 181 178 175 178 177 162 175 188 213 267 294 292 155 163 190 202 210 217 208 205 202 195 197 185 180 184 192 178 197 206 204 316
186 184 182 181 181 180 182 181 178 185 185 181 181 178 177 173 177 186 196 188 197 258 271 114 117 131 192 172 154 154 173 195 181 187 200 197 207 187 165 163 183 190 287
183 183 184 183 184 185 183 180 180 184 182 179 182 181 177 174 179 178 176 183 193 205 202 142 124 133 142 116 109 131 180 158 192 347 77 90 42 138 154 164 161 159 358
183 183 183 183 182 182 183 180 179 179 177 179 178 180 179 174 175 169 165 177 192 166 137 126 113 109 105 105 101 90 100 69 48 12 48 66 39 111 143 151 161 164 187
180 182 181 180 181 180 179 175 177 178 178 179 183 184 181 176 170 160 157 156 162 141 129 122 112 97 76 76 89 84 86 94 55 83 74 42 32 87 110 141 146 149 167
175 176 179 175 173 172 172 175 177 172 173 177 178 176 175 173 167 165 166 157 145 140 142 142 129 111 90 85 88 86 99 99 70 52 90 63 64 83 95 120 132 129 134
172 170 168 163 165 170 171 175 176 175 177 175 172 174 169 166 168 171 168 156 149 147 151 146 137 128 114 99 99 98 94 108 96 55 79 45 55 68 100 121 124 134 126
163 160 155 157 165 169 170 173 175 175 172 167 167 172 171 171 177 177 172 162 156 153 141 140 145 144 133 118 122 125 108 105 115 106 109 101 95 47 60 108 119 122 118
164 163 160 163 165 169 171 172 176 174 170 168 171 180 183 181 180 173 170 168 162 156 155 153 156 157 147 141 144 132 117 112 95 82 105 104 134 161 136 116 126 123 113
163 167 169 166 165 165 167 171 171 169 168 170 177 186 185 179 172 170 172 168 165 165 160 156 159 163 161 172 162 160 151 146 136 49 42 99 117 116 120 125 137 136 131
170 169 168 168 171 169 167 168 168 167 165 172 183 183 176 173 173 174 170 164 165 164 157 165 172 183 204 171 161 161 157 157 154 151 65 74 79 97 110 119 129 143 151
172 172 174 176 177 175 169 170 169 162 165 174 178 177 174 175 179 177 171 173 174 168 164 173 175 186 203 172 167 167 162 164 176 173 155 107 87 87 101 101 96 105 136
176 176 174 173 172 168 165 165 160 162 169 176 180 178 176 179 178 175 178 182 178 179 184 186 185 185 205 185 174 167 158 157 180 178 161 140 127 126 122 111 92 81 97
175 175 174 168 163 162 162 159 163 165 171 179 183 183 179 181 180 183 185 186 180 186 192 189 188 193 214 198 179 169 159 153 174 183 164 153 154 154 137 122 112 87 25
154 157 155 150 157 164 160 156 167 172 183 189 188 182 179 182 187 191 190 186 183 192 189 195 200 198 208 204 186 174 171 172 176 179 190 179 167 162 148 144 142 147 191
148 149 149 156 167 164 157 163 171 187 194 188 182 182 184 188 189 189 188 180 180 184 192 199 210 210 211 208 195 180 179 183 178 184 201 210 176 163 163 159 168 185 172
142 146 148 157 162 160 160 169 187 195 181 174 177 184 187 190 188 182 187 185 182 188 198 202 214 223 217 204 199 189 186 178 176 194 204 203 187 181 179 173 180 173 150
149 147 144 145 153 164 167 180 194 179 171 174 182 188 186 186 182 185 191 190 191 199 206 205 213 222 218 210 203 197 192 184 184 200 198 195 194 195 202 205 185 163 152
152 149 146 153 167 174 174 184 186 174 173 183 190 186 185 185 187 192 194 197 200 206 210 210 216 218 213 213 207 199 196 194 193 196 200 195 193 191 208 214 207 181 172
154 157 160 168 178 176 181 186 179 171 179 187 190 189 188 187 192 197 202 204 210 208 208 212 206 203 216 220 202 193 195 196 195 167 146 150 167 203 221 217 221 196 167
152 156 163 169 178 177 184 192 183 178 180 187 192 195 196 196 196 193 209 227 220 223 218 211 201 211 214 199 193 198 197 190 172 155 177 197 199 203 206 206 213 210 208
Height
1544 1546 1547 1549 1550 1552 1553 1554 1555 1556 1557 1557 1558 1558 1559 1559 1559 1559 1559 1559 1558 1558 1558 1558 1557 1557 1557 1557 1557 1556 1556 1556 1556 1556 1555 1555 1555 1555 1554 1554 1554 1553 1553
1542 1544 1546 1547 1549 1550 1551 1553 1554 1555 1556 1556 1557 1557 1558 1558 1559 1558 1558 1558 1558 1557 1557 1557 1557 1556 1556 1556 1556 1555 1555 1554 1555 1554 1554 1554 1555 1554 1553 1553 1552 1552 1551
1539 1541 1543 1545 1547 1548 1550 1551 1552 1554 1555 1555 1556 1557 1557 1557 1558 1557 1557 1557 1557 1557 1556 1556 1556 1555 1555 1555 1554 1554 1553 1553 1553 1553 1553 1553 1552 1552 1553 1552 1552 1551 1550
1536 1538 1540 1542 1544 1546 1548 1550 1551 1552 1553 1554 1555 1555 1555 1556 1556 1556 1556 1556 1556 1556 1556 1555 1555 1554 1554 1553 1553 1552 1552 1552 1551 1551 1551 1552 1551 1551 1551 1551 1551 1550 1549
1533 1535 1537 1539 1542 1544 1546 1548 1550 1551 1552 1553 1553 1554 1554 1555 1555 1555 1555 1555 1555 1555 1554 1554 1553 1553 1553 1552 1551 1551 1550 1550 1549 1549 1549 1549 1549 1549 1549 1548 1549 1549 1548
1530 1532 1535 1538 1540 1543 1545 1546 1548 1549 1550 1551 1552 1553 1553 1554 1554 1554 1554 1554 1554 1553 1553 1552 1552 1551 1551 1550 1550 1549 1548 1548 1548 1547 1547 1547 1547 1546 1546 1546 1546 1546 1546
1526 1530 1533 1535 1538 1540 1542 1544 1545 1547 1548 1550 1550 1551 1552 1552 1552 1553 1553 1552 1552 1551 1551 1551 1550 1550 1549 1549 1548 1547 1547 1546 1546 1545 1545 1545 1545 1544 1544 1544 1543 1544 1544
1524 1527 1530 1532 1535 1537 1540 1542 1543 1545 1547 1548 1549 1549 1550 1551 1551 1551 1551 1551 1551 1550 1550 1549 1549 1548 1548 1547 1546 1546 1545 1544 1544 1544 1543 1543 1542 1542 1542 1542 1542 1542 1542
1520 1523 1527 1530 1533 1535 1537 1539 1541 1543 1544 1546 1547 1548 1549 1549 1549 1550 1550 1550 1550 1549 1549 1548 1548 1547 1546 1545 1545 1544 1543 1543 1542 1542 1542 1541 1541 1540 1540 1540 1540 1540 1540
1517 1521 1524 1527 1530 1533 1536 1538 1540 1541 1542 1544 1545 1546 1547 1547 1548 1548 1548 1548 1548 1548 1548 1547 1547 1546 1545 1545 1544 1543 1542 1542 1541 1541 1540 1540 1539 1539 1538 1538 1538 1539 1539
1514 1518 1522 1525 1528 1531 1534 1536 1537 1539 1541 1542 1543 1544 1545 1546 1546 1546 1547 1547 1547 1547 1547 1547 1546 1545 1545 1544 1543 1542 1542 1541 1540 1540 1539 1538 1538 1537 1537 1537 1537 1537 1537
1513 1516 1520 1523 1526 1529 1531 1533 1535 1537 1538 1540 1541 1542 1543 1544 1544 1545 1545 1546 1546 1546 1546 1546 1546 1545 1544 1544 1543 1542 1541 1540 1539 1539 1538 1538 1537 1536 1536 1535 1535 1535 1535
1512 1515 1519 1521 1524 1526 1529 1531 1533 1535 1537 1538 1540 1541 1541 1542 1542 1543 1544 1545 1545 1545 1546 1545 1545 1545 1544 1543 1543 1542 1541 1540 1539 1539 1538 1537 1536 1536 1535 1535 1534 1534 1535
1511 1514 1517 1520 1522 1524 1527 1529 1531 1533 1535 1537 1538 1538 1539 1540 1541 1542 1543 1543 1544 1544 1544 1544 1544 1544 1543 1543 1542 1541 1541 1540 1539 1538 1538 1537 1536 1535 1535 1534 1534 1534 1534
1509 1512 1515 1518 1520 1523 1525 1528 1530 1532 1533 1535 1536 1536 1537 1538 1539 1540 1541 1542 1543 1543 1543 1543 1543 1543 1543 1542 1542 1541 1540 1539 1539 1538 1537 1537 1536 1535 1535 1534 1533 1533 1533
1507 1510 1513 1516 1518 1520 1523 1525 1527 1529 1531 1533 1534 1535 1536 1537 1538 1539 1539 1540 1541 1541 1542 1542 1542 1541 1541 1541 1541 1540 1539 1539 1538 1537 1537 1536 1536 1535 1534 1533 1533 1533 1532
1505 1508 1510 1513 1516 1518 1521 1523 1525 1527 1529 1530 1531 1533 1534 1535 1536 1537 1537 1538 1539 1539 1540 1540 1540 1540 1540 1539 1539 1539 1539 1538 1537 1537 1536 1535 1535 1534 1534 1533 1532 1532 1531
1502 1506 1509 1511 1514 1516 1519 1521 1523 1525 1527 1528 1529 1530 1531 1532 1533 1534 1535 1536 1536 1537 1537 1538 1538 1538 1538 1538 1538 1538 1537 1537 1536 1536 1535 1535 1534 1533 1533 1532 1531 1531 1530
1500 1503 1506 1509 1511 1514 1517 1519 1521 1522 1524 1525 1526 1527 1528 1529 1530 1531 1532 1533 1534 1534 1535 1535 1536 1536 1536 1536 1536 1536 1536 1535 1535 1535 1534 1534 1533 1532 1532 1531 1530 1530 1529
1499 1501 1504 1507 1509 1512 1514 1516 1518 1519 1520 1522 1523 1524 1525 1526 1527 1528 1529 1530 1531 1532 1532 1533 1533 1533 1533 1533 1534 1534 1534 1533 1533 1533 1532 1532 1531 1531 1530 1530 1529 1528 1528
1497 1500 1502 1505 1507 1509 1512 1513 1515 1516 1518 1519 1521 1522 1523 1523 1524 1525 1526 1527 1528 1529 1529 1530 1530 1530 1531 1531 1531 1531 1531 1531 1531 1530 1530 1530 1530 1529 1529 1528 1528 1528 1527
1495 1497 1500 1502 1505 1507 1509 1511 1512 1514 1516 1517 1518 1519 1519 1520 1521 1522 1523 1524 1525 1526 1526 1527 1527 1527 1528 1528 1528 1528 1528 1529 1529 1528 1528 1528 1528 1528 1527 1527 1527 1526 1526
1492 1495 1497 1500 1502 1504 1506 1508 1510 1511 1513 1513 1514 1515 1516 1517 1518 1519 1520 1521 1522 1522 1523 1523 1523 1524 1524 1525 1525 1525 1526 1526 1526 1526 1526 1526 1526 1526 1526 1525 1525 1525 1524
1490 1493 1495 1497 1499 1502 1503 1505 1507 1508 1509 1509 1510 1511 1512 1513 1514 1515 1516 1517 1517 1518 1518 1519 1519 1520 1520 1521 1521 1522 1523 1523 1523 1524 1524 1525 1525 1525 1524 1524 1523 1523 1522
1489 1491 1493 1495 1497 1499 1500 1502 1503 1504 1505 1506 1507 1507 1508 1509 1510 1511 1512 1512 1513 1514 1515 1515 1516 1516 1517 1517 1518 1518 1519 1519 1520 1521 1521 1521 1521 1521 1521 1521 1521 1520 1520
1488 1490 1491 1493 1494 1495 1497 1498 1499 1500 1501 1501 1502 1503 1504 1504 1505 1506 1507 1508 1509 1510 1511 1511 1512 1512 1513 1514 1514 1515 1516 1516 1517 1517 1517 1517 1517 1517 1517 1517 1517 1517 1517